This is the latest recevied weather packets stored in our database for station/object T10BNorth. If no packets are shown the sender has not sent any weather packets the latest 1 day(s).
| Time | Temp. | Humidity | Pressure | Rain* | Wind** | Luminosity | Snow |
|---|---|---|---|---|---|---|---|
| 1777994727 | 21.11° C | 58% | 1006 hPa | 0 mm | 1.79 m/s, 139° | 795 W/m² | - |
| 1777994666 | 20.56° C | 60% | 1006.1 hPa | 0 mm | 1.34 m/s, 201° | 800 W/m² | - |
| 1777994605 | 20.56° C | 59% | 1006.1 hPa | 0 mm | 1.34 m/s, 130° | 782 W/m² | - |
| 1777994540 | 20.56° C | 59% | 1006.2 hPa | 0 mm | 1.34 m/s, 172° | 819 W/m² | - |
| 1777994480 | 20.56° C | 61% | 1006.1 hPa | 0 mm | 1.34 m/s, 236° | 814 W/m² | - |
| 1777994420 | 20.56° C | 59% | 1006.2 hPa | 0 mm | 1.34 m/s, 140° | 803 W/m² | - |
| 1777994358 | 20° C | 59% | 1006.1 hPa | 0 mm | 1.34 m/s, 195° | 826 W/m² | - |
| 1777994300 | 20° C | 58% | 1006.1 hPa | 0 mm | 1.79 m/s, 180° | 397 W/m² | - |
| 1777994233 | 20° C | 60% | 1006.1 hPa | 0 mm | 1.79 m/s, 215° | 397 W/m² | - |
| 1777994172 | 20° C | 59% | 1006.1 hPa | 0 mm | 1.79 m/s, 132° | 397 W/m² | - |
| 1777994114 | 20° C | 60% | 1006.2 hPa | 0 mm | 1.79 m/s, 92° | 353 W/m² | - |
| 1777994052 | 20° C | 60% | 1006.1 hPa | 0 mm | 2.24 m/s, 355° | 353 W/m² | - |
| 1777993993 | 20° C | 59% | 1006.1 hPa | 0 mm | 2.24 m/s, 171° | 401 W/m² | - |
| 1777993922 | 20° C | 58% | 1006.1 hPa | 0 mm | 2.24 m/s, 183° | 359 W/m² | - |
| 1777993863 | 20° C | 58% | 1006.1 hPa | 0 mm | 2.24 m/s, 157° | 438 W/m² | - |
| 1777993803 | 20° C | 58% | 1006.1 hPa | 0 mm | 2.24 m/s, 148° | 359 W/m² | - |
| 1777993744 | 20° C | 58% | 1006.2 hPa | 0 mm | 2.24 m/s, 143° | 359 W/m² | - |
| 1777993684 | 20° C | 58% | 1006.2 hPa | 0 mm | 2.24 m/s, 150° | 359 W/m² | - |
| 1777993619 | 20° C | 59% | 1006.2 hPa | 0 mm | 2.24 m/s, 128° | 411 W/m² | - |
| 1777993558 | 20° C | 58% | 1006.1 hPa | 0 mm | 1.79 m/s, 88° | 717 W/m² | - |
| 1777993498 | 20° C | 58% | 1006.1 hPa | 0 mm | 1.79 m/s, 167° | 717 W/m² | - |
| 1777993437 | 20° C | 58% | 1006.1 hPa | 0 mm | 1.79 m/s, 179° | 424 W/m² | - |
| 1777993377 | 20° C | 58% | 1006.2 hPa | 0 mm | 1.34 m/s, 176° | 424 W/m² | - |
| 1777993311 | 20° C | 59% | 1006.2 hPa | 0 mm | 1.34 m/s, 166° | 487 W/m² | - |
| 1777993251 | 20° C | 58% | 1006.2 hPa | 0 mm | 1.34 m/s, 126° | 907 W/m² | - |
* Rain latest hour (hover to see other rain measurements)
** Current wind speed in m/s (hover to see current wind gust speed)